Location: Bliesmengen-Bolchen
(49.1497°N, 7.1151°E)
Time: 15:14:18
(UTC+00:00)

Daily predictions for brighter satellites

Satellite Brightness Start Highest point End
(mag) Time Altitude Azimuth Time Altitude Azimuth Time Altitude Azimuth
Cosmos 1703 3.6 20:17:25 10° SSE 20:21:08 46° E 20:24:53 10° NNE
Cosmos 1812 Rocket 3.9 20:17:29 10° NNW 20:21:48 68° W 20:26:05 10° S
COSMOS 2428 3.9 20:17:46 10° SSE 20:22:06 23° ESE 20:26:28 10° NE
Cosmos 1844 3.9 20:17:36 10° NNW 20:23:24 74° ENE 20:29:08 10° SE
Cosmos 2322 4.2 20:20:31 10° S 20:25:47 40° ESE 20:31:05 10° NE
Cosmos 1602 Rocket 4.1 20:25:35 10° SSW 20:29:57 62° WNW 20:34:24 10° N
Cosmos 2263 Rocket 4.3 20:27:16 10° NW 20:31:17 21° W 20:35:18 10° SSW
Nadezhda 1 Rocket 4.3 20:25:57 10° NNW 20:32:22 75° W 20:38:43 10° S
Cosmos 1709 Rocket 4.2 20:26:38 10° SSE 20:32:45 56° E 20:38:57 10° NNE
MetOp-B 4.4 20:29:27 10° S 20:34:48 72° WSW 20:40:11 10° NNW
Atlas Centaur 2 4.1 20:32:04 10° SSW 20:35:08 14° S 20:38:29 10° SE
Cosmos 2237 Rocket 4.1 20:34:10 10° ESE 20:36:10 12° E 20:38:10 10° ENE
Terra 2.8 20:31:55 10° SE 20:36:13 35° ENE 20:40:34 10° N
CARTOSAT-1 4.0 20:33:07 10° SE 20:37:17 50° ENE 20:41:29 10° N
Cosmos 2219 Rocket 2.9 20:33:05 10° SSE 20:38:01 33° ESE 20:42:59 10° NE
Cosmos 2360 Rocket 2.2 20:34:07 10° SSW 20:39:46 86° ESE 20:45:28 10° NNE
IGS 5A 3.5 20:36:18 10° S 20:40:27 81° WSW 20:44:39 10° NNW
Cosmos 2333 Rocket 2.6 20:42:26 10° S 20:47:44 42° ESE 20:53:06 10° NE
ATLAS 2AS CENTAUR R/B 3.9 20:43:16 10° NW 20:50:37 43° NNE 20:57:24 10° E
Cosmos 1315 Rocket 3.5 20:46:52 10° N 20:50:49 44° ENE 20:54:13 13° SE
Resurs 01 Rocket 3.4 20:48:37 10° SSW 20:52:27 28° W 20:56:17 10° NW
Cosmos-2242 3.3 20:50:01 10° NNW 20:54:21 69° W 20:58:40 10° S
Cosmos 1818 3.7 20:49:35 10° SW 20:55:01 86° NW 21:00:31 10° NE
Cosmos 773 Rocket 4.0 20:52:32 10° S 20:57:46 65° ESE 21:03:02 10° NNE
SL-16 R/B 3.9 20:53:41 10° WSW 20:58:56 38° NW 21:04:13 10° NNE
Cosmos 2221 3.6 20:55:15 10° N 20:59:15 33° ENE 21:02:29 14° SE
ERS-1 Rocket 3.0 20:56:51 11° SSE 21:01:44 89° ENE 21:06:49 10° NNW
GEOS 3 Rocket 3.7 20:57:52 10° NE 21:03:18 80° SE 21:08:41 10° SW
USA 215 3.4 21:00:18 10° ENE 21:06:43 53° SE 21:13:04 10° SSW
Cosmos 2278 Rocket 2.8 21:02:48 10° NNW 21:08:20 48° NE 21:13:09 13° SE
Cosmos 1892 4.4 21:07:01 14° ESE 21:08:50 19° E 21:11:33 10° NE
ATLAS 5 CENTAUR R/B 1.8 21:07:30 10° SW 21:11:42 73° NW 21:16:28 10° NE
Meteor 1-11 4.2 21:06:47 10° S 21:12:24 83° E 21:18:08 10° NNE
Cosmos 1844 Rocket 3.6 21:07:49 10° NW 21:13:02 42° WSW 21:18:13 10° S
Cosmos 1400 Rocket 4.0 21:09:54 10° NNW 21:13:38 39° W 21:17:18 10° SSW
Gblst 52 Del rocket 4.3 21:08:41 10° WNW 21:14:21 81° SSW 21:20:34 11° ESE
SPOT 5 3.0 21:13:56 13° S 21:18:28 76° WSW 21:23:17 10° NNW
Lacrosse 5 rocket 3.6 21:16:40 10° WNW 21:20:17 27° N 21:23:45 10° NE
USA 81 4.1 21:20:03 10° S 21:25:19 86° W 21:30:39 10° N
Cosmos 2058 3.9 21:25:00 19° SE 21:27:12 31° E 21:30:53 10° NNE
BREEZE M DEB (TANK) 3.2 21:25:31 10° W 21:27:23 20° SSW 21:27:39 20° SSW
Cosmos 2181 Rocket 4.2 21:22:12 10° NNW 21:28:32 72° W 21:34:15 12° S
Cosmos 1408 4.2 21:29:06 16° ESE 21:30:17 19° E 21:32:52 10° NE
Cosmos 2074 Rocket 4.1 21:29:15 15° S 21:34:30 65° E 21:40:40 10° NNE
TSX-5 3.9 21:31:40 10° NNW 21:35:05 61° ENE 21:37:36 21° SE
Cosmos 1076 Rocket 4.2 21:36:08 21° SE 21:38:24 37° E 21:42:20 10° NNE
Cosmos 1680 Rocket 4.3 21:35:41 19° SSE 21:38:42 34° ESE 21:43:29 10° NE
USA 267 3.3 21:34:05 12° ESE 21:40:11 90° SW 21:46:48 10° WNW
Cosmos 2084 3.9 21:41:13 10° NW 21:45:34 53° SW 21:48:05 23° SSE
Cosmos 1842 Rocket 3.6 21:41:47 10° NNW 21:46:10 73° W 21:49:02 21° S
JB-3 4.2 21:43:48 10° NNE 21:47:39 70° ESE 21:49:58 23° S
MTI 3.5 21:48:32 10° NNE 21:51:39 86° ESE 21:53:11 27° SSW
Cosmos 923 Rocket 4.1 21:52:20 18° S 21:56:07 61° ESE 22:01:20 10° NNE
ATLAS CENTAUR R/B 2.1 21:53:33 10° NW 21:56:56 34° WSW 21:58:26 24° SSW
Cosmos 1825 3.4 21:58:09 23° ESE 21:59:20 28° E 22:02:36 10° NNE
Cosmos 2369 Rocket 4.4 21:56:16 10° N 22:00:11 19° NE 22:04:05 10° E
ALOS 2 4.0 21:58:03 16° ESE 22:00:40 29° ENE 22:04:27 10° N
Cosmos 1980 3.8 21:56:55 19° S 22:00:55 55° ESE 22:06:26 10° NE
Cosmos 967 Rocket 4.5 21:56:41 10° SSW 22:03:06 71° ESE 22:09:33 10° NE
COSMOS 2428 3.1 22:00:14 10° SW 22:05:52 66° WNW 22:11:33 10° NNE
Cosmos 1869 3.9 22:03:13 10° NNW 22:07:05 50° W 22:09:22 22° SSW
NOSS 0 Rocket 3.9 22:07:31 12° SSW 22:13:16 79° ESE 22:19:28 10° NNE
Cosmos 1624 Rocket 4.2 22:08:38 10° NNW 22:13:52 64° ENE 22:16:57 24° SE
Terra 3.1 22:10:33 14° SSW 22:13:59 32° W 22:18:17 10° NNW
NOSS 3-4 (A) 3.8 22:07:15 10° NW 22:14:12 89° SW 22:19:46 20° SE
NOSS 3-4 (C) 3.8 22:07:22 10° NW 22:14:19 90° SW 22:19:55 20° SE
Cosmos 2237 Rocket 2.2 22:14:58 19° SSW 22:19:10 71° ESE 22:24:52 10° NNE
Genesis I 3.5 22:18:36 34° S 22:19:46 46° ESE 22:23:31 10° NE
Cosmos 2344 3.7 22:16:02 17° S 22:21:47 52° ESE 22:29:28 10° NE
Cosmos 2219 Rocket 3.2 22:16:25 10° SW 22:21:48 47° NW 22:27:14 10° NNE
Atlas Centaur 2 4.5 22:20:20 10° SW 22:21:21 12° SSW 22:21:21 12° SSW
Elektron 1 4.3 22:21:22 26° SSW 22:23:08 67° SE 22:28:35 10° NE
NOSS 3-3 (A) 4.4 22:18:41 10° SW 22:24:37 65° NW 22:31:24 10° NE
NOSS 3-3 (C) 4.4 22:18:46 10° SW 22:24:43 66° NW 22:31:31 10° NE
DELTA 2 R/B (1) 4.3 22:24:48 10° SW 22:29:30 28° S 22:30:02 28° SSE
Thor Agena Rocket 3.4 22:25:11 10° NNE 22:30:21 80° ESE 22:33:18 26° S
Cosmos 2333 Rocket 3.5 22:26:43 10° WSW 22:32:03 40° NW 22:37:27 10° NNE
Cosmos 2221 4.1 22:32:59 10° NNW 22:36:42 27° W 22:39:20 16° SW
Iridium 2 4.0 22:37:11 10° NNW 22:40:59 60° W 22:42:26 34° SSW
BREEZE-M DEB (TANK) 1.2 22:37:20 10° WNW 22:41:07 67° SSW 22:41:22 61° SSE
Cosmos 1371 Rocket 4.1 22:36:22 10° NNW 22:41:38 71° WSW 22:44:15 30° S
ATLAS 2AS CENTAUR R/B 2.9 22:34:34 10° NW 22:42:08 71° SW 22:46:25 25° SSE
EO 1 Del DPAF 3.2 22:39:40 10° NNE 22:43:27 79° WNW 22:44:59 34° SSW
Cosmos 1892 3.9 22:41:59 18° SW 22:44:16 36° WNW 22:47:49 10° N
MOS 1-B Rocket 4.4 22:37:22 10° NNE 22:45:16 88° ESE 22:49:57 22° SSW
Cosmos 1766 Rocket 3.8 22:44:24 34° SSE 22:46:00 54° E 22:50:19 10° NNE
Cosmos 1328 Rocket 3.8 22:44:26 10° N 22:48:41 56° ENE 22:50:25 32° SE
Aureole 2 Rocket 1.8 22:45:53 10° NNW 22:48:44 80° ENE 22:48:59 69° SE
Okean 3 Rocket 3.6 22:47:02 35° SSE 22:48:49 67° E 22:53:13 10° NNE
USA 215 3.6 22:43:22 10° NE 22:49:53 67° NNW 22:56:22 10° WSW
Cosmos 1606 2.7 22:47:10 10° N 22:51:04 74° E 22:52:19 41° SSE
Cosmos 2112 Rocket 4.2 22:48:24 20° SSW 22:52:11 74° WNW 22:57:34 10° NNE
Cosmos 2278 Rocket 3.3 22:47:13 10° NW 22:52:14 33° WSW 22:54:59 21° SSW
Cosmos 2297 3.7 22:48:13 10° NNW 22:54:00 85° ENE 22:57:11 28° SSE
Cosmos 2218 Rocket 4.3 22:50:54 27° SSE 22:54:20 59° E 23:00:31 10° NNE
Cosmos 158 Rocket 4.2 22:52:56 19° SW 22:56:23 62° WNW 23:01:17 10° NNE
ATLAS 5 CENTAUR R/B 4.4 22:53:41 10° WNW 22:57:13 22° NNW 23:01:07 10° NNE
Cosmos 1420 Rocket 4.0 22:52:33 10° NNW 22:57:51 78° ENE 23:00:36 29° SSE
Cosmos 2366 rocket 4.2 22:56:35 28° SSE 23:00:01 62° E 23:06:16 10° NNE
Lacrosse 5 rocket 2.8 22:56:30 10° NW 23:00:17 35° NNE 23:03:51 10° E
Cosmos 1943 Rocket 2.8 22:55:03 10° NNW 23:00:36 52° NE 23:04:40 18° SE
Cosmos 1633 4.0 23:01:11 24° ESE 23:01:51 25° E 23:04:53 10° NNE
SL-16 R/B 2.3 23:00:46 30° S 23:03:30 61° ESE 23:09:07 10° NE
Cosmos 1408 3.9 23:03:24 21° WSW 23:05:06 32° WNW 23:08:21 10° N
Cosmos 2056 Rocket 3.9 23:00:15 10° NNW 23:05:31 53° WSW 23:07:58 30° SSW
Cosmos 1959 Rocket 4.5 23:06:20 29° S 23:09:37 73° E 23:15:48 10° NNE
Cosmos 2341 Rocket 4.2 23:11:46 24° SSW 23:15:41 67° WNW 23:21:54 10° N
Cosmos 332 Rocket 3.8 23:14:25 10° NNW 23:19:14 77° ENE 23:21:28 32° SSE
USA 267 4.1 23:21:24 26° SSW 23:23:43 33° SW 23:29:31 10° WNW
Meteor 2-3 Rocket 3.7 23:21:02 31° S 23:23:47 74° E 23:29:29 10° NNE
IRIDIUM 104 4.4 23:23:26 31° SSW 23:25:57 74° W 23:31:12 10° N
Cosmos 2151 4.0 23:23:52 23° SW 23:26:01 39° WNW 23:30:04 10° N
Helios 1A 2.9 23:24:53 41° SSE 23:26:19 88° WSW 23:30:31 10° NNW
Cosmos 405 3.3 23:24:43 10° N 23:28:14 56° ENE 23:29:08 41° SE
Meteor 1-26 Rocket 4.3 23:26:15 10° NNW 23:32:18 81° W 23:35:20 31° S
Cosmos 1452 Rocket 3.4 23:27:21 10° NNW 23:32:39 81° WSW 23:35:06 33° SSE
CZ-4C R/B 3.4 23:26:45 10° NW 23:33:36 61° NE 23:41:37 10° ESE
COSMOS 2455 2.8 23:28:31 10° NW 23:34:37 90° WSW 23:38:24 24° SSE
SL-8 Rocket 4.2 23:30:59 25° SSW 23:34:39 64° WNW 23:40:47 10° N
Cosmos 1825 4.0 23:32:56 17° WSW 23:34:49 25° WNW 23:38:00 10° NNW
PSLV R/B 4.3 23:31:17 10° NNE 23:35:16 39° E 23:36:34 31° SE
Cosmos 1340 2.7 23:34:23 44° SSW 23:35:26 72° WNW 23:39:13 10° N
ALOS 2 3.6 23:35:27 27° SW 23:36:54 35° W 23:40:57 10° NNW
Cosmos 1933 3.9 23:33:13 10° NNW 23:37:05 45° W 23:38:13 35° SW
Cosmos 1408 Rocket 3.6 23:35:56 37° SSW 23:37:35 76° W 23:42:01 10° N
Cosmos 1151 Rocket 3.7 23:34:29 10° NNW 23:38:37 43° W 23:40:03 32° SW
SL-16 R/B 4.3 23:33:47 10° ESE 23:38:46 26° NE 23:43:46 10° N
Cosmos 1727 Rocket 4.0 23:38:29 10° NNW 23:44:44 77° W 23:48:04 30° S
APEX 3.0 23:42:08 10° NW 23:44:22 43° W 23:44:22 43° W
Cosmos 2369 Rocket 2.3 23:39:34 10° NNW 23:45:12 75° ENE 23:48:49 23° SE
Resurs 1-4 Rocket 4.3 23:42:40 10° NE 23:45:23 14° E 23:48:05 10° ESE
Cosmos 44 3.3 23:43:38 25° SW 23:46:06 66° NW 23:50:33 10° NE
Cosmos 1500 Rocket 3.6 23:44:49 38° SSE 23:46:23 68° E 23:50:46 10° NNE
GP-B 4.2 23:42:49 10° NNW 23:46:54 36° W 23:48:50 24° SW
SL-4 R/B 3.2 23:48:59 15° WNW 23:48:59 15° WNW 23:49:36 10° NW
Cosmos 371 Rocket 3.8 23:44:12 10° NW 23:48:49 44° WSW 23:50:25 32° SSW
SeaSat 1 4.3 23:46:22 10° ENE 23:49:38 17° ESE 23:51:20 15° SE
Helios 1B rocket 2.9 23:50:03 10° NNE 23:54:05 49° E 23:55:23 35° SSE
CREW DRAGON DEMO-1 DEB 3.0 23:54:49 26° W 23:56:21 69° NNW 23:59:25 10° ENE
